STARLINK-11514, 62514

Orbit data source: Space-Track

STARLINK-11514, 62514 is a payload satellite owned by SpaceX/Seattle (US) in LEO that was launched on Wed, 08 Jan 2025 UTC via an FALCON 9 launch vehicle from the Air Force Eastern Test Range (AFETR). Payload-class satellites include a variety of spacecraft equipped with specific instruments for various scientific and technological missions. These include communications satellites like Starlink; space stations such as the ISS; scientific satellites like the Hubble; Earth observation satellites from companies like Planet Labs, Umbra, and HawkEye 360; GPS; miniature CubeSats for education and research; and military/defense satellites.

Loading next visibility...
Identifier
62514, 2025-004D
Orbit
LEO
Country
Flag of USUS
Related business
Manufacturer
SpaceX/Seattle
Mission
Operational Commercial Communications
Bus & Motor
STARLINK V2MD, Unknown motor
Mass
960 kg wet, ~910 kg dry
Launch date (UTC)
2025-01-08 (1 year ago)
Launch vehicle
FALCON 9
Launch site
Air Force Eastern Test Range (AFETR)
Object type
Payload
Rocket body
Debris
Shape & HBR
Box + 2 Pan, 18.1 m
Radar Cross Section
36.964 m², Large (>1 m²)

Expand to show TLE details & history
Last TLE update: 19 hours ago

TLE from 19 hours ago
0 STARLINK-11514
1 62514U 25004D   26094.84859286  .00334413  00000-0  25015-2 0  9993
2 62514  42.9990 272.9634 0001739 294.5753  65.4933 15.70885144 71327
Epoch: 2026-04-04T20:21Z
TLE epoch observation values (Epoch: 2026-04-04T20:21:58.423Z)
Latitude
-0.00002°
Longitude
134.30747°
Altitude
355.652 km
Speed
7.698 km/s
True Right ascension
18h 11m 51s
True Declination
0° 00' 00"
Sunlit
Object was in daylight at epoch
Visualization orbit readout
Latitude
Unknown
Longitude
Unknown
Altitude
Unknown
Speed
Unknown
Apparent Right ascension
Unknown
Apparent Declination
Unknown
Sunlit
N/A
Visualization observer readout
Local Sidereal Time
21:10:27
Azimuth
Unknown
Elevation
Unknown
Doppler factor
Unknown
Orbital elements
Apogee altitude
359.519 km
Perigee altitude
357.176 km
Semi-major axis
6,736.485 km
Eccentricity
0.00017
Inclination
42.999°
RAAN
272.9634°
Arg. of periapsis
294.5753°
True anomaly
65.51143°
Mean anomaly
65.4933°
Eccentric anomaly
65.50237°
Mean motion
3.92548 °/min
Orbital period
91.71 mins
BSTAR
0.0025015
Loading maneuver chart data...
Computing Atmospheric mass density...
Loading historical data...
Loading historical data...
Loading historical data...
Loading historical data...
Loading historical data...
Loading historical data...
Loading historical data...

Documentation

Showing up to 5 results
|